Simultaneous Nadir Overpasses (SNOs) Predictions

Prediction of SNOs between METOP-A and TERRA Satellite Orbit:

Table of predicted SNOs for the next 14.0 days since TLE Epoch: 7/20/2019
Index Date (METOP-A) Time (METOP-A) Lat,Lon (METOP-A) SZA (METOP-A ) Date (TERRA) Time (TERRA) Lat,Lon (TERRA) SZA (TERRA ) Distance(km) Time Diff (sec)
1 07/22/2019 11:24:40 81.45, 59.09 64.19 07/22/2019 11:24:55 81.45, 58.89 64.18 3.24 15
2 07/22/2019 12:15:21 -81.45,-133.73 115.82 07/22/2019 12:14:22 -81.45,-133.55 115.83 3.06 59
3 07/25/2019 06:59:04 81.45, 125.27 64.74 07/25/2019 06:59:11 81.44, 125.09 64.72 2.97 7
4 07/25/2019 07:49:44 -81.45, -67.11 115.22 07/25/2019 07:48:37 -81.46, -66.93 115.23 3.22 67
5 07/28/2019 01:42:46 -81.45, 24.19 114.66 07/28/2019 01:43:59 -81.45, 23.99 114.65 3.29 73
6 07/28/2019 02:33:26 81.45,-168.17 65.38 07/28/2019 02:33:25 81.45,-168.30 65.37 2.15 1
7 07/28/2019 03:24:00 -81.41, 1.87 114.32 07/28/2019 03:22:46 -81.55, 1.68 114.30 16.20 74
8 07/30/2019 21:17:09 -81.45, 90.78 113.98 07/30/2019 21:18:14 -81.46, 90.64 113.96 2.54 65
9 07/30/2019 22:07:50 81.45,-102.01 66.02 07/30/2019 22:07:41 81.44,-102.06 66.00 1.11 9
10 08/02/2019 16:51:33 -81.45, 156.97 113.30 08/02/2019 16:52:30 -81.45, 156.92 113.28 0.72 57




NCC Satellite Simultaneous Nadir Overpasses (SNOs) Prediction Service
